Tracking 29892 objects as of 21-Nov-2024
HD Live streaming from Space Station
objects crossing your sky now

STARLINK-30306

Track STARLINK-30306 now!
10-day predictions
STARLINK-30306 is classified as:


NORAD ID: 57633
Int'l Code: 2023-122B
Perigee: 565.0 km
Apogee: 567.4 km
Inclination: 43.0 °
Period: 95.8 minutes
Semi major axis: 6937 km
RCS: Unknown
Launch date: August 17, 2023
Source: United States (US)
Launch site: AIR FORCE EASTERN TEST RANGE (AFETR)
Your satellite tracking list
Your tracking list is empty




NASA's NSSDC Master Catalog

Two Line Element Set (TLE):
1 57633U 23122B   24325.87511446  .00000150  00000-0  26212-4 0  9999
2 57633  43.0027 149.5678 0001749 236.7848 123.2827 15.02538025 70891
Source of the keplerian elements: AFSPC